Flag for Germany Weather past 2 weeks in Dinslaken, North Rhine-Westphalia, Germany

Now
54 °F

Overcast.


Feels Like: 53 °F
Forecast: 47 / 59 °F
Wind: 5 mph from Southwest

Location: Essen

Current Time: Oct 23, 2014 at 5:19:12 PM

Latest Report: Oct 23, 2014 at 5:00 PM


Visibility: 13 mi

Pressure: 30.20 "Hg

Humidity: 80%

Dew point: 48 °F

Location of DinslakenLocation

Historic Weather in Dinslaken — Graph

°F

Dinslaken temperature yesterday

Maximum temperature yesterday: 50 °F (at 3:00 PM)
Minimum temperature yesterday: 44 °F (at 9:00 AM)
Average temperature yesterday: 46 °F

Past Weeks' High & Low Weather Summary

 TemperatureHumidityPressure
High73 °F (Oct 19, 3:00 PM)100% (Oct 11, 7:00 AM)30.24 "Hg (Oct 11, 7:00 AM)
Low44 °F (Oct 22, 9:00 AM)55% (Oct 14, 2:00 PM)29.47 "Hg (Oct 21, 4:00 PM)
Average57 °F85%29.87 "Hg
* Reported Oct 8 4:00 PM — Oct 23 4:00 PM, Dinslaken, Weather by CustomWeather, © 2014

Note: Actual official high and low records may vary slightly from our data, if they occured in-between our weather recording intervals... More about our weather records

Advertising

Dinslaken weather history for previous 24 hours

 ConditionsComfort  
Time TempWeatherWind HumidityBarometerVisibility
4:00 PM
Oct 23
54 °FOvercast.3 mph81%30.21 "Hg11 mi
3:00 PM54 °FOvercast.3 mph79%30.21 "Hg10 mi
2:00 PM53 °FOvercast.5 mph81%30.22 "Hg10 mi
1:00 PM53 °FOvercast.3 mph81%30.23 "Hg9 mi
12:00 PM51 °FOvercast.5 mph86%30.24 "Hg7 mi
11:00 AM50 °FOvercast.3 mph89%30.23 "Hg6 mi
10:00 AM49 °FOvercast.3 mph92%30.23 "Hg6 mi
9:00 AM47 °FFog.2 mph95%30.22 "Hg4 mi
8:00 AM47 °FFog.2 mph99%30.20 "Hg3 mi
7:00 AM46 °FLow clouds.1 mph99%30.20 "Hg2 mi
6:00 AM47 °FDrizzle. Low clouds.2 mph97%30.19 "Hg3 mi
5:00 AM46 °FOvercast.2 mph95%30.19 "Hg7 mi
4:00 AM46 °FOvercast.2 mph94%30.20 "Hg7 mi
3:00 AM46 °FPassing clouds.2 mph94%30.20 "Hg9 mi
2:00 AM47 °FOvercast.2 mph94%30.19 "Hg10 mi
1:00 AM47 °FOvercast.2 mph93%30.19 "Hg8 mi
12:00 AM47 °FOvercast.1 mph94%30.18 "Hg11 mi
11:00 PM
Oct 22
48 °FOvercast.1 mph89%30.18 "Hg17 mi
10:00 PM49 °FOvercast.1 mph82%30.17 "Hg25 mi
9:00 PM49 °FDrizzle. Low clouds.2 mph83%30.15 "Hg19 mi
8:00 PM48 °FLow clouds.3 mph87%30.13 "Hg25 mi
7:00 PM49 °FLow clouds.5 mph85%30.11 "Hg22 mi
6:00 PM50 °FOvercast.5 mph78%30.08 "Hg31 mi
5:00 PM49 °FPartly sunny.6 mph85%30.07 "Hg28 mi
Weather by CustomWeather, © 2014

See weather overviewHow to use our weather pages